STARLINK-1714, 46562

Orbit data source: Space-Track

STARLINK-1714, 46562 is a payload satellite owned by SpaceX/Seattle (US) in LEO that was launched on Tue, 06 Oct 2020 UTC via an FALCON 9 launch vehicle from the Air Force Eastern Test Range (AFETR). Payload-class satellites include a variety of spacecraft equipped with specific instruments for various scientific and technological missions. These include communications satellites like Starlink; space stations such as the ISS; scientific satellites like the Hubble; Earth observation satellites from companies like Planet Labs, Umbra, and HawkEye 360; GPS; miniature CubeSats for education and research; and military/defense satellites.

Loading next visibility...
Identifier
46562, 2020-070AG
Orbit
LEO
Country
Flag of USUS
Related business
Manufacturer
SpaceX/Seattle
Mission
Partially operational Commercial Communications
Bus & Motor
STARLINK, Unknown motor
Mass
260 kg wet, ~248 kg dry
Launch date (UTC)
2020-10-06 (6 years ago)
Launch vehicle
FALCON 9
Launch site
Air Force Eastern Test Range (AFETR)
Object type
Payload
Rocket body
Debris
Shape & HBR
Box + 1 Pan, 10.1 m
Radar Cross Section
13.562 m², Large (>1 m²)

Expand to show TLE details & history
Last TLE update: 10 hours ago

TLE from 10 hours ago
0 STARLINK-1714
1 46562U 20070AG  26124.83335647  .01073754  00000-0  96909-2 0  9998
2 46562  53.0398 204.0790 0008539 349.7498 299.1990 15.65165089  5970
Epoch: 2026-05-04T20:00Z
TLE epoch observation values (Epoch: 2026-05-04T20:00:01.999Z)
Latitude
-49.30102°
Longitude
-19.10036°
Altitude
386.9 km
Speed
7.679 km/s
True Right ascension
09h 34m 29s
True Declination
-49° 07' 18"
Sunlit
Object was in full shadow at epoch
Visualization orbit readout
Latitude
Unknown
Longitude
Unknown
Altitude
Unknown
Speed
Unknown
Apparent Right ascension
Unknown
Apparent Declination
Unknown
Sunlit
N/A
Visualization observer readout
Local Sidereal Time
13:30:47
Azimuth
Unknown
Elevation
Unknown
Doppler factor
Unknown
Orbital elements
Apogee altitude
378.809 km
Perigee altitude
367.279 km
Semi-major axis
6,751.181 km
Eccentricity
0.00085
Inclination
53.0398°
RAAN
204.079°
Arg. of periapsis
349.7498°
True anomaly
299.11354°
Mean anomaly
299.199°
Eccentric anomaly
299.15627°
Mean motion
3.91267 °/min
Orbital period
92.01 mins
BSTAR
0.0096909
Loading maneuver chart data...
Computing Atmospheric mass density...
Loading historical data...
Loading historical data...
Loading historical data...
Loading historical data...
Loading historical data...
Loading historical data...
Loading historical data...

Documentation

Showing up to 5 results
|